ראשי / חיפושים אחרונים

חיפושים אחרונים

לוחית
סוג רכב
דגם
שנה
תאריך חיפוש
שעת חיפוש
1838271 פיג'ו תורכיה GRAND PARTNER 2009 31/08/2026 20:10:52
5836333 קיה קוריאה הדרומית RIO 2015 31/08/2026 20:10:51
47168002 מזדה יפן MAZDA 6 2021 31/08/2026 20:10:48
9636078 עמנואל תעשיות - 2016 31/08/2026 20:10:47
7302123 טויוטה יפן פראדו 2000 31/08/2026 20:10:45
8201465 מזדה יפן MAZDA 2 2009 31/08/2026 20:10:45
1291973 יונדאי קוריאה הדרומית TOCSON 2010 31/08/2026 20:10:42
4332034 הארלי דיוידסון - 2015 31/08/2026 20:10:42
59077801 מאן אוסטריה - 2019 31/08/2026 20:10:41
70332602 טויוטה טורקיה COROLLA HSD SDN 2021 31/08/2026 20:10:39
190723 פונטיאק ארהב" - 1978 31/08/2026 20:10:37
4091555 מזדה יפן MAZDA 3 2017 31/08/2026 20:10:37
8803476 סקודה צ'כיה OCTAVIA 2012 31/08/2026 20:10:34
2827810 סקודה צ'כיה OCTAVIA 2003 31/08/2026 20:10:34
313087 ב מ וו גרמניה - 1971 31/08/2026 20:10:32
8249538 קיה קוריאה הדרומית PICANTO 2016 31/08/2026 20:10:30
59147202 מזדה יפן MAZDA 3 2021 31/08/2026 20:10:28
15018903 טויוטה צרפת YARIS CROSS HSD 2022 31/08/2026 20:10:26
2389257 פולקסווגן גרמנ - 1987 31/08/2026 20:10:25
35614501 סאן יאנג טיואן - 2018 31/08/2026 20:10:24
10740801 טויוטה בריטניה AVENSIS 2017 31/08/2026 20:10:22
12090702 סקודה צ'כיה OCTAVIA 2019 31/08/2026 20:10:20
3234773 סוזוקי הונגריה SPLASH 2010 31/08/2026 20:10:18
19643101 ניסאן יפן X-TRAIL 2018 31/08/2026 20:10:15
76191102 יונדאי קוריאה הדרומית VENUE 2022 31/08/2026 20:10:15
45651703 טויוטה טורקיה COROLLA SDN HSD 2023 31/08/2026 20:10:13
51115402 שברולט קוריאה הדרומית SPARK 2021 31/08/2026 20:10:11
5097352 טויוטה צרפת YARIS HYBRID 2013 31/08/2026 20:10:10
83743702 סיאט ספרד CUPRA 2022 31/08/2026 20:10:09
1123728 ימהה תאילנד - 2016 31/08/2026 20:10:09
87343902 טויוטה צרפת YARIS HYBRID 2022 31/08/2026 20:10:05
3828050 פיג'ו צרפת 307 2003 31/08/2026 20:10:03
7561837 ניסאן בריטניה QASHQAI 2016 31/08/2026 20:10:02
48736404 צ'רי סין TIGGO 4 HYBRID 2025 31/08/2026 20:09:59
5322511 מיצובישי תאילנד SPACE STAR 2014 31/08/2026 20:09:56
61636001 סוזוקי יפן IGNIS 2019 31/08/2026 20:09:56
84695003 קיה קוריאה הדרומית NIRO HEV 2024 31/08/2026 20:09:55
3770430 מזדה יפן MAZDA 3 2017 31/08/2026 20:09:55
8616234 סיטרואן ספרד BERLINGO 2016 31/08/2026 20:09:54
7702072 רנו צרפת KANGOO 2 2010 31/08/2026 20:09:54
4953439 סיטרואן ספרד BERLINGO 2017 31/08/2026 20:09:52
1135262 טויוטה יפן COROLLA 2007 31/08/2026 20:09:49
46850102 יונדאי קוריאה הדרומית SONATA HYBRID 2021 31/08/2026 20:09:47
94251701 טויוטה ארהב" - 2024 31/08/2026 20:09:46
82529901 יונדאי קוריאה הדרומית ELANTRA 2019 31/08/2026 20:09:45
74380903 טויוטה טורקיה TOYOTA C-HR 2024 31/08/2026 20:09:44
77628503 טסלה גרמניה MODEL Y 2024 31/08/2026 20:09:44
1909132 יונדאי טורקיה I10 2015 31/08/2026 20:09:41
1082460 טויוטה דרום אפריקה HILUX VIGO 2006 31/08/2026 20:09:40
1036031 מרצדס בנץ גרמנ - 2014 31/08/2026 20:09:40
1260032 מרצדס גרמניה S500 4 MATIC 2015 31/08/2026 20:09:39
2840113 סוזוקי הונגריה SX4 2011 31/08/2026 20:09:34
14321404 בי ווי די סין SEAL 2024 31/08/2026 20:09:33
8496137 ניסאן בריטניה QASHQAI 2016 31/08/2026 20:09:33
3277732 איסוזו טורקיה - 2014 31/08/2026 20:09:29
15947201 יונדאי קוריאה הדרומית I25 2018 31/08/2026 20:09:28
3349470 טויוטה יפן COROLLA 2009 31/08/2026 20:09:25
6519900 פרגוסון - 1994 31/08/2026 20:09:24
7921933 ימהה תאילנד - 2015 31/08/2026 20:09:23
5694166 מיצובישי יפן PAJERO 2010 31/08/2026 20:09:20
69265002 מזדה יפן CX-5 2021 31/08/2026 20:09:19
80958802 שברולט קוריאה הדרומית TRAX 2024 31/08/2026 20:09:17
69797103 גילי סין GEOMETRY C 2024 31/08/2026 20:09:17
9695813 מ.ג סין MG350 2015 31/08/2026 20:09:17
21586203 טויוטה יפן CAMRY HYBRID 2022 31/08/2026 20:09:16
9836927 טויוטה יפן COROLLA 2000 31/08/2026 20:09:15
33031301 בומברדיה מקסיק - 2024 31/08/2026 20:09:15
45692004 אופל ספרד CORSA 2025 31/08/2026 20:09:14
5508576 יונדאי קוריאה הדרומית IX35 2011 31/08/2026 20:09:14
27039602 כ.ח תנורי חימ' - 2020 31/08/2026 20:09:11
5149058 מרוטי סוזוקי הודו ALTO 2014 31/08/2026 20:09:09
4303012 סיאט ספרד IBIZA 2013 31/08/2026 20:09:06
84291502 פיג'ו צרפת 3008 2022 31/08/2026 20:09:06
91794001 רנו טורקיה FLUENCE 2017 31/08/2026 20:09:04
8902912 שברולט ד.קוריא CRUZE 1.6 LT 2013 31/08/2026 20:09:04
4125170 סוזוקי הונגריה SWIFT 2010 31/08/2026 20:09:03
64707201 סיטרואן ספרד BERLINGO 2019 31/08/2026 20:09:03
9780175 ע.ג.מ - 2014 31/08/2026 20:09:03
2020014 מרצדס גרמניה K 200 2006 31/08/2026 20:09:02
8418270 פולקסווגן פורטוגל SCIROCCO 2010 31/08/2026 20:09:01
5493233 קיה סלובקיה SPORTAGE 2015 31/08/2026 20:08:59
3070234 מיצובישי יפן OUTLANDER 2015 31/08/2026 20:08:58
20978703 סקודה צ'כיה KODIAQ FL 2022 31/08/2026 20:08:57
6725171 מזדה יפן MAZDA 3 2011 31/08/2026 20:08:57
68537403 הייגר סין - 2024 31/08/2026 20:08:56
5725176 יונדאי קוריאה הדרומית I35 2011 31/08/2026 20:08:55
6225173 סקודה צ'כיה FABIA 2011 31/08/2026 20:08:54
7514612 מ א ן גרמניה - 2013 31/08/2026 20:08:52
1056831 מרצדס הונגריה CLA200 2014 31/08/2026 20:08:51
41358702 סאן יאנג טיואן - 2021 31/08/2026 20:08:51
7125173 פולקסווגן ספרד POLO 2011 31/08/2026 20:08:51
9695813 מ.ג סין MG350 2015 31/08/2026 20:08:50
6304034 סוזוקי הונגריה VITARA 2015 31/08/2026 20:08:50
79194401 וולבו שבדיה - 2022 31/08/2026 20:08:50
7332966 טויוטה יפן COROLLA 2008 31/08/2026 20:08:49
25085201 שברולט קוריאה הדרומית SPARK 2018 31/08/2026 20:08:48
93040101 מרצדס בנץ גרמנ - 2021 31/08/2026 20:08:47
6558452 טויוטה טורקיה COROLLA 2013 31/08/2026 20:08:46
2873415 סובארו יפן - 1994 31/08/2026 20:08:46
17322504 מרצדס בנץ גרמנ - 2025 31/08/2026 20:08:45
1233075 סיטרואן תורכיה BERLINGO 2011 31/08/2026 20:08:45
4125111 יונדאי קוריאה הדרומית I25 2013 31/08/2026 20:08:44
72569702 וולבו שבדיה - 2022 31/08/2026 20:08:43
4025176 יונדאי צ'כיה I30 2011 31/08/2026 20:08:43
1172067 אלפא רומיאו איטליה ALFA R0ME0 159 2009 31/08/2026 20:08:42
2777351 טויוטה יפן HILUX 2003 31/08/2026 20:08:41
4690266 יונדאי קוריאה הדרומית GETZ 2008 31/08/2026 20:08:41
23048503 סיטרואן צרפת C5 AIRCROSS 2023 31/08/2026 20:08:39
1113378 ב מ וו גרמניה 740I 2011 31/08/2026 20:08:39
1325167 פיאט איטליה BRAVO 1.4 2009 31/08/2026 20:08:38
4425170 א.ג.נגררים - 2010 31/08/2026 20:08:37
83396702 רנו ספרד CAPTUR 2022 31/08/2026 20:08:35
5191016 ב מ וו גרמניה 323I 1999 31/08/2026 20:08:35
11367103 מרצדס בנץ אוסטריה G500 2023 31/08/2026 20:08:34
62185601 סובארו יפן XV 2019 31/08/2026 20:08:32
4810654 פולקסווגן גרמניה PASSAT 2015 31/08/2026 20:08:32
16116104 סובארו יפן FORESTER 2025 31/08/2026 20:08:32
80958802 שברולט קוריאה הדרומית TRAX 2024 31/08/2026 20:08:31
1132434 מרצדס בנץ גרמנ - 2015 31/08/2026 20:08:31
41469001 קיה קוריאה הדרומית PICANTO 2018 31/08/2026 20:08:30
5925167 סובארו יפן EMPREZA B3 2009 31/08/2026 20:08:30
41469001 קיה קוריאה הדרומית PICANTO 2018 31/08/2026 20:08:29
7488959 טויוטה יפן COROLLA 2005 31/08/2026 20:08:29
7012954 מזדה יפן MAZDA 3 2015 31/08/2026 20:08:28
7871424 מיצובישי תאילנד LANCER 2000 31/08/2026 20:08:26
33831803 יונדאי הודו ACCENT 2023 31/08/2026 20:08:25
6805711 מזדה יפן MAZDA 2 2014 31/08/2026 20:08:24
5792916 ב מ וו גרמניה 550I 2006 31/08/2026 20:08:23
7600038 קיה סלובקיה SPORTAGE 2016 31/08/2026 20:08:23
53250104 ג'י.אמ.סי ארה - 2025 31/08/2026 20:08:22
4125112 סיאט ספרד IBIZA FLOW 2013 31/08/2026 20:08:21
1012064 שברולט קוריאה הדרומית AVEO 2008 31/08/2026 20:08:20
62389003 הונדה יפן - 2024 31/08/2026 20:08:20
54808902 סקודה צ'כיה OCTAVIA 2021 31/08/2026 20:08:20
1267967 פיאט פולין FIAT 500 1.2 2010 31/08/2026 20:08:19
21734604 טויוטה תאילנד HILUX 2025 31/08/2026 20:08:15
5527558 סוזוקי הונגריה SX4 CROSSOVER 2014 31/08/2026 20:08:15
7450287 רנו צרפת - 2018 31/08/2026 20:08:10
1769173 מיצובישי יפן LANCER 2010 31/08/2026 20:08:10
3644030 ב מ וו גרמניה 440I 2017 31/08/2026 20:08:08
71979504 ב מ וו גרמניה IX2 EDRIVE20 2026 31/08/2026 20:08:05
32996302 טויוטה צרפת YARIS HYBRID 2021 31/08/2026 20:08:05
16046001 יונדאי צ'כיה TUCSON 2018 31/08/2026 20:08:03
40308901 סובארו יפן FORESTER 2018 31/08/2026 20:08:00
82675003 טויוטה יפן CAMRY HYBRID 2024 31/08/2026 20:08:00
2553878 סיטרואן צרפת C4 2011 31/08/2026 20:07:59
9025484 סוזוקי תאילנד CELERIO 2016 31/08/2026 20:07:57
16889302 אאודי סלובקיה Q8 2020 31/08/2026 20:07:55
41469001 קיה קוריאה הדרומית PICANTO 2018 31/08/2026 20:07:50
4515717 הונדה יפן CIVIC 1999 31/08/2026 20:07:50
3861976 יונדאי צ'כיה I30 2011 31/08/2026 20:07:48
9695813 מ.ג סין MG350 2015 31/08/2026 20:07:47
39073703 טויוטה יפן COROLLA CROSS 2023 31/08/2026 20:07:46
9489871 מרכז הגרורים - 2010 31/08/2026 20:07:45
4057335 סיאט ספרד IBIZA 2001 31/08/2026 20:07:40
3077986 סוזוקי הונגריה VITARA 2017 31/08/2026 20:07:36
4425176 יונדאי קוריאה הדרומית I25 2011 31/08/2026 20:07:35
8025167 הונדה טורקיה CIVIC 2008 31/08/2026 20:07:30
7895260 יונדאי קוריאה הדרומית GETZ 2006 31/08/2026 20:07:25
9836927 טויוטה יפן COROLLA 2000 31/08/2026 20:07:23
78977901 וולבו סין S90 T8 2020 31/08/2026 20:07:23
49913404 טויוטה יפן COROLLA CROSS 2026 31/08/2026 20:07:20
53202402 סקודה צ'כיה OCTAVIA 2021 31/08/2026 20:07:17
2672466 יונדאי קוריאה הדרומית GETZ 2008 31/08/2026 20:07:17
39073703 טויוטה יפן COROLLA CROSS 2023 31/08/2026 20:07:17
3830574 טויוטה צרפת YARIS 2010 31/08/2026 20:07:16
39223202 פיג'ו צרפת 5008 2021 31/08/2026 20:07:15
9671978 מרצדס בנץ גרמנ - 2015 31/08/2026 20:07:15
92218701 מרצדס בנץ גרמנ - 2020 31/08/2026 20:07:14
3830575 מזדה יפן MAZDA 2 2011 31/08/2026 20:07:13
79786601 אופל ספרד CORSA 2020 31/08/2026 20:07:13
21586203 טויוטה יפן CAMRY HYBRID 2022 31/08/2026 20:07:12
35632902 יונדאי קוריאה הדרומית IONIQ HYBRID 2020 31/08/2026 20:07:10
1469134 מיצובישי יפן LANCER SPORTBAC 2015 31/08/2026 20:07:07
79951101 גון-דיר ארהב" - 2019 31/08/2026 20:07:06
2460739 סובארו יפן FORESTER 2017 31/08/2026 20:07:05
3293176 מיצובישי יפן GRANDIS 2011 31/08/2026 20:07:04
88275102 מיצובישי תאילנד SPACE STAR 2022 31/08/2026 20:07:04
8534937 ניסאן בריטניה QASHQAI 2016 31/08/2026 20:07:02
19043404 פיאט איטליה FIAT DUCATO 2025 31/08/2026 20:07:01
92218701 מרצדס בנץ גרמנ - 2020 31/08/2026 20:07:00
5925112 יונדאי טורקיה I20 2012 31/08/2026 20:07:00
6444567 סובארו יפן B4 2010 31/08/2026 20:06:58
53565401 מיצובישי יפן OUTLANDER 2019 31/08/2026 20:06:55
17233001 יונדאי קוריאה הדרומית IONIQ HYBRID 2018 31/08/2026 20:06:49
5833376 פולקסווגן גרמניה GOLF 2011 31/08/2026 20:06:47
1798066 מזדה יפן MAZDA 6 2008 31/08/2026 20:06:46
39073703 טויוטה יפן COROLLA CROSS 2023 31/08/2026 20:06:45
1627232 יונדאי טורקיה I10 2015 31/08/2026 20:06:44
1039760 טויוטה יפן COROLLA 2006 31/08/2026 20:06:42
87003603 צ'רי סין TIGGO 8 PRO 2024 31/08/2026 20:06:41
4523212 אאודי גרמניה A3 2013 31/08/2026 20:06:38
56722702 סקודה צ'כיה OCTAVIA 2021 31/08/2026 20:06:37
6616211 מזדה יפן MAZDA 6 WAGON 2014 31/08/2026 20:06:35
38235204 שברולט ארהב" - 2025 31/08/2026 20:06:33
1124966 שברולט קוריאה הדרומית OPTRA 2008 31/08/2026 20:06:31
6097770 הונדה טורקיה CIVIC 2010 31/08/2026 20:06:29
20962403 סיאט ספרד CUPRA 2022 31/08/2026 20:06:29
7277713 אופל פולין ASTRA GTC 2012 31/08/2026 20:06:29
50090401 מרצדס גרמניה C200 2018 31/08/2026 20:06:28
וואטסאפ